This is the latest recevied weather packets stored in our database for station/object KC3SOZ. If no packets are shown the sender has not sent any weather packets the latest 10 day(s).
| Time | Temp. | Humidity | Pressure | Rain* | Wind** | Luminosity | Snow |
|---|---|---|---|---|---|---|---|
| 1777916941 | 20° C | 45% | 1011.1 hPa | 0 mm | - | 209 W/m² | - |
| 1777916638 | 20.56° C | 46% | 1011.3 hPa | 0 mm | - | 842 W/m² | - |
| 1777916335 | 20.56° C | 45% | 1011.5 hPa | 0 mm | - | 870 W/m² | - |
| 1777916032 | 20° C | 45% | 1011.4 hPa | 0 mm | - | 854 W/m² | - |
| 1777915729 | 20° C | 43% | 1011.5 hPa | 0 mm | - | 607 W/m² | - |
| 1777915426 | 20° C | 45% | 1011.6 hPa | 0 mm | - | 835 W/m² | - |
| 1777915121 | 20° C | 44% | 1011.9 hPa | 0 mm | - | 835 W/m² | - |
| 1777914819 | 20° C | 45% | 1011.6 hPa | 0 mm | - | 827 W/m² | - |
| 1777914516 | 20° C | 47% | 1011.7 hPa | 0 mm | - | 828 W/m² | - |
| 1777914213 | 19.44° C | 47% | 1011.8 hPa | 0 mm | - | 823 W/m² | - |
| 1777913909 | 19.44° C | 43% | 1012.1 hPa | 0 mm | - | 831 W/m² | - |
| 1777913606 | 20° C | 43% | 1012 hPa | 0 mm | - | 830 W/m² | - |
| 1777913302 | 19.44° C | 44% | 1012 hPa | 0 mm | - | 845 W/m² | - |
| 1777913000 | 19.44° C | 49% | 1012.3 hPa | 0 mm | - | 829 W/m² | - |
| 1777912695 | 19.44° C | 45% | 1012.4 hPa | 0 mm | - | 814 W/m² | - |
| 1777912391 | 18.89° C | 46% | 1012.4 hPa | 0 mm | - | 811 W/m² | - |
| 1777912088 | 18.89° C | 44% | 1012.3 hPa | 0 mm | - | 816 W/m² | - |
| 1777911783 | 18.89° C | 46% | 1012.3 hPa | 0 mm | - | 812 W/m² | - |
| 1777911480 | 18.33° C | 45% | 1012.6 hPa | 0 mm | - | 822 W/m² | - |
| 1777911178 | 18.89° C | 45% | 1013 hPa | 0 mm | - | 164 W/m² | - |
| 1777910875 | 18.89° C | 43% | 1012.5 hPa | 0 mm | - | 196 W/m² | - |
| 1777910571 | 17.78° C | 46% | 1012.6 hPa | 0 mm | - | 843 W/m² | - |
| 1777910269 | 18.33° C | 47% | 1013.2 hPa | 0 mm | - | 808 W/m² | - |
| 1777909965 | 18.33° C | 45% | 1013.2 hPa | 0 mm | - | 787 W/m² | - |
| 1777909662 | 18.33° C | 48% | 1013.2 hPa | 0 mm | - | 770 W/m² | - |
* Rain latest hour (hover to see other rain measurements)
** Current wind speed in m/s (hover to see current wind gust speed)